Location: Caltech
(34.1382°N, 118.1253°W)
Time: 05:00:56
(UTC-07:00)

Iridium 95 - Pass Details

Date: 27 April 2018
Orbit: 775 x 780 km, 86.4° (Epoch: 19 May)

Event Time Altitude Azimuth Distance (km) Brightness Sun altitude
Rises 21:50:52 0° 213° (SSW) 3,248 8.7 -25.6°
Reaches altitude 10° 21:53:39 10° 227° (SW) 2,324 8.0 -26.1°
Maximum altitude 21:57:45 23° 279° (W) 1,599 7.7 -26.7°
Drops below altitude 10° 22:01:52 10° 332° (NNW) 2,333 8.9 -27.3°
Sets 22:04:42 0° 346° (NNW) 3,264 9.6 -27.7°
